Time,TemperatureF,DewpointF,PressureIn,WindDirection,WindDirectionDegrees,WindSpeedMPH,WindSpeedGustMPH,Humidity,HourlyPrecipIn,Conditions,Clouds,dailyrainin,SoftwareType,DateUTC
2013-01-21 00:03:00,17.0,7.0,-100.00,SSW,205,1.0,3.0,64,0.00,,,-99.99,,2013-01-21 07:03:00,
2013-01-21 00:13:00,16.0,6.0,-100.00,SSW,205,0.0,2.0,64,0.00,,,-99.99,,2013-01-21 07:13:00,
2013-01-21 00:22:00,15.0,6.0,-100.00,SW,215,1.0,2.0,65,0.00,,,-99.99,,2013-01-21 07:22:00,
2013-01-21 00:33:00,15.0,6.0,-100.00,South,190,0.0,2.0,66,0.00,,,-99.99,,2013-01-21 07:33:00,
2013-01-21 00:42:00,15.0,6.0,-100.00,West,280,0.0,0.0,66,0.00,,,-99.99,,2013-01-21 07:42:00,
2013-01-21 00:53:00,15.0,6.0,-100.00,SSW,205,0.0,0.0,66,0.00,,,-99.99,,2013-01-21 07:53:00,
2013-01-21 01:03:00,15.0,6.0,-100.00,SSW,200,0.0,0.0,67,0.00,,,-99.99,,2013-01-21 08:03:00,
2013-01-21 01:13:00,15.0,6.0,-100.00,SSW,210,2.0,4.0,68,0.00,,,-99.99,,2013-01-21 08:13:00,
2013-01-21 01:23:00,14.0,5.0,-100.00,NE,35,0.0,2.0,67,0.00,,,-99.99,,2013-01-21 08:23:00,
2013-01-21 01:32:00,13.0,5.0,-100.00,NE,35,0.0,1.0,67,0.00,,,-99.99,,2013-01-21 08:32:00,
2013-01-21 01:42:00,15.0,7.0,-100.00,NNE,15,1.0,1.0,69,0.00,,,-99.99,,2013-01-21 08:42:00,
2013-01-21 01:53:00,15.0,7.0,-100.00,ENE,70,0.0,2.0,70,0.00,,,-99.99,,2013-01-21 08:53:00,
2013-01-21 02:02:00,15.0,7.0,-100.00,ENE,65,0.0,0.0,70,0.00,,,-99.99,,2013-01-21 09:02:00,
2013-01-21 02:12:00,14.0,6.0,-100.00,SSW,195,0.0,2.0,70,0.00,,,-99.99,,2013-01-21 09:12:00,
2013-01-21 02:23:00,14.0,6.0,-100.00,SSW,195,0.0,0.0,71,0.00,,,-99.99,,2013-01-21 09:23:00,
2013-01-21 02:33:00,14.0,6.0,-100.00,SW,225,0.0,1.0,71,0.00,,,-99.99,,2013-01-21 09:33:00,
2013-01-21 02:42:00,14.0,7.0,-100.00,SSW,210,0.0,2.0,72,0.00,,,-99.99,,2013-01-21 09:42:00,
2013-01-21 02:53:00,13.0,6.0,-100.00,SSW,200,0.0,1.0,72,0.00,,,-99.99,,2013-01-21 09:53:00,
2013-01-21 03:02:00,13.0,6.0,-100.00,SSW,200,0.0,1.0,72,0.00,,,-99.99,,2013-01-21 10:02:00,
2013-01-21 03:12:00,13.0,6.0,-100.00,SSW,200,0.0,1.0,73,0.00,,,-99.99,,2013-01-21 10:12:00,
2013-01-21 03:22:00,13.0,6.0,-100.00,SSW,200,0.0,0.0,74,0.00,,,-99.99,,2013-01-21 10:22:00,
2013-01-21 03:32:00,13.0,6.0,-100.00,SSW,200,0.0,0.0,74,0.00,,,-99.99,,2013-01-21 10:32:00,
2013-01-21 03:43:00,13.0,7.0,-100.00,SSW,205,0.0,2.0,75,0.00,,,-99.99,,2013-01-21 10:43:00,
2013-01-21 03:53:00,14.0,8.0,-100.00,WSW,255,0.0,1.0,75,0.00,,,-99.99,,2013-01-21 10:53:00,
2013-01-21 04:02:00,14.0,7.0,-100.00,North,10,1.0,2.0,74,0.00,,,-99.99,,2013-01-21 11:02:00,
2013-01-21 04:13:00,14.0,7.0,-100.00,SW,220,1.0,2.0,73,0.00,,,-99.99,,2013-01-21 11:13:00,
2013-01-21 04:23:00,16.0,8.0,-100.00,West,270,2.0,4.0,72,0.00,,,-99.99,,2013-01-21 11:23:00,
2013-01-21 04:33:00,18.0,9.0,-100.00,WNW,285,1.0,4.0,68,0.00,,,-99.99,,2013-01-21 11:33:00,
2013-01-21 04:42:00,17.0,8.0,-100.00,WSW,240,0.0,2.0,68,0.00,,,-99.99,,2013-01-21 11:42:00,
2013-01-21 04:53:00,15.0,7.0,-100.00,SW,235,0.0,1.0,68,0.00,,,-99.99,,2013-01-21 11:53:00,
2013-01-21 05:02:00,15.0,7.0,-100.00,SW,220,1.0,1.0,69,0.00,,,-99.99,,2013-01-21 12:02:00,
2013-01-21 05:12:00,15.0,7.0,-100.00,West,270,0.0,1.0,70,0.00,,,-99.99,,2013-01-21 12:12:00,
2013-01-21 05:22:00,13.0,6.0,-100.00,South,180,0.0,1.0,71,0.00,,,-99.99,,2013-01-21 12:22:00,
2013-01-21 05:32:00,13.0,6.0,-100.00,West,260,1.0,3.0,72,0.00,,,-99.99,,2013-01-21 12:32:00,
2013-01-21 05:42:00,12.0,5.0,-100.00,SSW,195,0.0,2.0,73,0.00,,,-99.99,,2013-01-21 12:42:00,
2013-01-21 05:53:00,12.0,6.0,-100.00,South,190,1.0,1.0,73,0.00,,,-99.99,,2013-01-21 12:53:00,
2013-01-21 06:02:00,12.0,5.0,-100.00,SW,220,0.0,2.0,73,0.00,,,-99.99,,2013-01-21 13:02:00,
2013-01-21 06:13:00,12.0,5.0,-100.00,SW,235,0.0,0.0,74,0.00,,,-99.99,,2013-01-21 13:13:00,
2013-01-21 06:23:00,12.0,6.0,-100.00,SSW,205,1.0,2.0,74,0.00,,,-99.99,,2013-01-21 13:23:00,
2013-01-21 06:33:00,12.0,5.0,-100.00,SSW,205,0.0,2.0,74,0.00,,,-99.99,,2013-01-21 13:33:00,
2013-01-21 06:43:00,12.0,5.0,-100.00,SSW,205,0.0,1.0,74,0.00,,,-99.99,,2013-01-21 13:43:00,
2013-01-21 06:54:00,12.0,6.0,-100.00,SW,220,0.0,0.0,74,0.00,,,-99.99,,2013-01-21 13:54:00,
2013-01-21 07:03:00,12.0,6.0,-100.00,SW,220,0.0,0.0,74,0.00,,,-99.99,,2013-01-21 14:03:00,
2013-01-21 07:12:00,12.0,5.0,-100.00,SSW,205,0.0,1.0,74,0.00,,,-99.99,,2013-01-21 14:12:00,
2013-01-21 07:23:00,12.0,5.0,-100.00,SSW,195,1.0,2.0,75,0.00,,,-99.99,,2013-01-21 14:23:00,
2013-01-21 07:32:00,12.0,6.0,-100.00,SW,225,0.0,2.0,75,0.00,,,-99.99,,2013-01-21 14:32:00,
2013-01-21 07:43:00,12.0,5.0,-100.00,North,355,0.0,1.0,74,0.00,,,-99.99,,2013-01-21 14:43:00,
2013-01-21 07:53:00,12.0,6.0,-100.00,WSW,245,0.0,1.0,74,0.00,,,-99.99,,2013-01-21 14:53:00,
2013-01-21 08:03:00,12.0,6.0,-100.00,WSW,245,0.0,0.0,74,0.00,,,-99.99,,2013-01-21 15:03:00,
2013-01-21 08:13:00,14.0,8.0,-100.00,SW,220,4.0,4.0,74,0.00,,,-99.99,,2013-01-21 15:13:00,
2013-01-21 08:23:00,17.0,9.0,-100.00,SSW,210,1.0,2.0,70,0.00,,,-99.99,,2013-01-21 15:23:00,
2013-01-21 08:33:00,18.0,9.0,-100.00,ENE,75,0.0,3.0,68,0.00,,,-99.99,,2013-01-21 15:33:00,
2013-01-21 08:43:00,19.0,10.0,-100.00,SW,215,0.0,2.0,67,0.00,,,-99.99,,2013-01-21 15:43:00,
2013-01-21 08:53:00,23.0,12.0,-100.00,ENE,75,0.0,1.0,62,0.00,,,-99.99,,2013-01-21 15:53:00,
2013-01-21 09:03:00,24.0,12.0,-100.00,ENE,75,0.0,1.0,59,0.00,,,-99.99,,2013-01-21 16:03:00,
2013-01-21 09:12:00,27.0,12.0,-100.00,ENE,70,0.0,2.0,54,0.00,,,-99.99,,2013-01-21 16:12:00,
2013-01-21 09:23:00,29.0,13.0,-100.00,East,95,1.0,2.0,48,0.00,,,-99.99,,2013-01-21 16:23:00,
2013-01-21 09:33:00,30.0,13.0,-100.00,SSE,165,0.0,2.0,46,0.00,,,-99.99,,2013-01-21 16:33:00,
2013-01-21 09:43:00,32.0,13.0,-100.00,East,95,1.0,3.0,43,0.00,,,-99.99,,2013-01-21 16:43:00,
2013-01-21 09:53:00,32.0,11.0,-100.00,NE,40,2.0,4.0,41,0.00,,,-99.99,,2013-01-21 16:53:00,
2013-01-21 10:02:00,33.0,12.0,-100.00,ESE,110,1.0,4.0,40,0.00,,,-99.99,,2013-01-21 17:02:00,
2013-01-21 10:12:00,35.0,13.0,-100.00,NE,55,1.0,2.0,38,0.00,,,-99.99,,2013-01-21 17:12:00,
2013-01-21 10:23:00,36.0,13.0,-100.00,NE,45,1.0,3.0,38,0.00,,,-99.99,,2013-01-21 17:23:00,
2013-01-21 10:33:00,35.0,12.0,-100.00,NE,35,4.0,6.0,38,0.00,,,-99.99,,2013-01-21 17:33:00,
2013-01-21 10:43:00,36.0,13.0,-100.00,West,260,0.0,5.0,37,0.00,,,-99.99,,2013-01-21 17:43:00,
2013-01-21 10:53:00,38.0,13.0,-100.00,NNE,30,4.0,6.0,36,0.00,,,-99.99,,2013-01-21 17:53:00,
2013-01-21 11:03:00,37.0,13.0,-100.00,East,100,2.0,6.0,36,0.00,,,-99.99,,2013-01-21 18:03:00,
2013-01-21 11:12:00,40.0,15.0,-100.00,NNE,25,3.0,6.0,35,0.00,,,-99.99,,2013-01-21 18:12:00,
2013-01-21 11:23:00,39.0,13.0,-100.00,West,265,4.0,15.0,34,0.00,,,-99.99,,2013-01-21 18:23:00,
2013-01-21 11:33:00,40.0,14.0,-100.00,SSE,155,3.0,11.0,33,0.00,,,-99.99,,2013-01-21 18:33:00,
2013-01-21 11:42:00,40.0,14.0,-100.00,SSW,200,6.0,9.0,33,0.00,,,-99.99,,2013-01-21 18:42:00,
2013-01-21 11:53:00,40.0,14.0,-100.00,SSW,200,6.0,9.0,33,0.00,,,-99.99,,2013-01-21 18:53:00,
2013-01-21 12:03:00,45.0,17.0,-100.00,SE,135,4.0,7.0,32,0.00,,,-99.99,,2013-01-21 19:03:00,
2013-01-21 12:12:00,45.0,17.0,-100.00,SW,220,4.0,13.0,32,0.00,,,-99.99,,2013-01-21 19:12:00,
2013-01-21 12:22:00,46.0,17.0,-100.00,SE,135,2.0,7.0,31,0.00,,,-99.99,,2013-01-21 19:22:00,
2013-01-21 12:33:00,48.0,18.0,-100.00,ESE,115,1.0,9.0,30,0.00,,,-99.99,,2013-01-21 19:33:00,
2013-01-21 12:43:00,46.0,16.0,-100.00,SW,220,6.0,11.0,29,0.00,,,-99.99,,2013-01-21 19:43:00,
2013-01-21 12:53:00,49.0,19.0,-100.00,ESE,105,1.0,7.0,29,0.00,,,-99.99,,2013-01-21 19:53:00,
2013-01-21 13:03:00,47.0,17.0,-100.00,ESE,105,7.0,11.0,29,0.00,,,-99.99,,2013-01-21 20:03:00,
2013-01-21 13:12:00,45.0,16.0,-100.00,East,90,6.0,15.0,30,0.00,,,-99.99,,2013-01-21 20:12:00,
2013-01-21 13:23:00,46.0,17.0,-100.00,ENE,75,7.0,15.0,30,0.00,,,-99.99,,2013-01-21 20:23:00,
2013-01-21 13:33:00,46.0,17.0,-100.00,ENE,75,7.0,15.0,30,0.00,,,-99.99,,2013-01-21 20:33:00,
2013-01-21 13:43:00,45.0,15.0,-100.00,ESE,105,4.0,13.0,30,0.00,,,-99.99,,2013-01-21 20:43:00,
2013-01-21 13:53:00,43.0,13.0,-100.00,NE,35,3.0,8.0,29,0.00,,,-99.99,,2013-01-21 20:53:00,
2013-01-21 14:03:00,43.0,13.0,-100.00,East,100,3.0,8.0,29,0.00,,,-99.99,,2013-01-21 21:03:00,
2013-01-21 14:12:00,43.0,13.0,-100.00,WSW,250,4.0,13.0,28,0.00,,,-99.99,,2013-01-21 21:12:00,
2013-01-21 14:23:00,43.0,12.0,-100.00,ENE,65,5.0,11.0,28,0.00,,,-99.99,,2013-01-21 21:23:00,
2013-01-21 14:33:00,44.0,13.0,-100.00,East,95,6.0,11.0,29,0.00,,,-99.99,,2013-01-21 21:33:00,
2013-01-21 14:43:00,42.0,13.0,-100.00,ESE,115,6.0,12.0,29,0.00,,,-99.99,,2013-01-21 21:43:00,
2013-01-21 14:53:00,42.0,13.0,-100.00,ENE,70,6.0,14.0,30,0.00,,,-99.99,,2013-01-21 21:53:00,
2013-01-21 15:03:00,42.0,13.0,-100.00,East,85,7.0,13.0,30,0.00,,,-99.99,,2013-01-21 22:03:00,
2013-01-21 15:12:00,42.0,13.0,-100.00,ENE,75,6.0,12.0,30,0.00,,,-99.99,,2013-01-21 22:12:00,
2013-01-21 15:23:00,41.0,12.0,-100.00,East,80,4.0,12.0,30,0.00,,,-99.99,,2013-01-21 22:23:00,
2013-01-21 15:33:00,39.0,10.0,-100.00,NE,50,4.0,12.0,29,0.00,,,-99.99,,2013-01-21 22:33:00,
2013-01-21 15:43:00,40.0,11.0,-100.00,East,100,3.0,9.0,30,0.00,,,-99.99,,2013-01-21 22:43:00,
2013-01-21 15:53:00,40.0,11.0,-100.00,SSE,155,2.0,7.0,29,0.00,,,-99.99,,2013-01-21 22:53:00,
2013-01-21 16:03:00,39.0,10.0,-100.00,SSW,210,7.0,12.0,29,0.00,,,-99.99,,2013-01-21 23:03:00,
2013-01-21 16:12:00,38.0,10.0,-100.00,NE,35,3.0,9.0,30,0.00,,,-99.99,,2013-01-21 23:12:00,
2013-01-21 16:23:00,37.0,9.0,-100.00,NE,40,5.0,9.0,30,0.00,,,-99.99,,2013-01-21 23:23:00,
2013-01-21 16:33:00,37.0,9.0,-100.00,SW,215,2.0,7.0,30,0.00,,,-99.99,,2013-01-21 23:33:00,
2013-01-21 16:42:00,37.0,9.0,-100.00,SW,215,2.0,7.0,30,0.00,,,-99.99,,2013-01-21 23:42:00,
2013-01-21 16:53:00,37.0,9.0,-100.00,SW,215,2.0,7.0,30,0.00,,,-99.99,,2013-01-21 23:53:00,
2013-01-21 17:02:00,37.0,9.0,-100.00,SW,215,2.0,7.0,30,0.00,,,-99.99,,2013-01-22 00:02:00,
2013-01-21 18:12:00,25.0,11.0,-100.00,WSW,250,2.0,3.0,52,0.00,,,-99.99,,2013-01-22 01:12:00,
2013-01-21 18:23:00,25.0,11.0,-100.00,SSE,165,0.0,1.0,55,0.00,,,-99.99,,2013-01-22 01:23:00,
2013-01-21 18:32:00,25.0,12.0,-100.00,South,180,1.0,1.0,56,0.00,,,-99.99,,2013-01-22 01:32:00,
2013-01-21 18:42:00,25.0,13.0,-100.00,WNW,295,2.0,3.0,58,0.00,,,-99.99,,2013-01-22 01:42:00,
2013-01-21 18:52:00,24.0,12.0,-100.00,North,0,0.0,2.0,57,0.00,,,-99.99,,2013-01-22 01:52:00,
2013-01-21 19:02:00,25.0,12.0,-100.00,WNW,300,0.0,3.0,58,0.00,,,-99.99,,2013-01-22 02:02:00,
2013-01-21 19:12:00,25.0,13.0,-100.00,West,275,2.0,2.0,58,0.00,,,-99.99,,2013-01-22 02:12:00,
2013-01-21 19:22:00,25.0,12.0,-100.00,SSE,165,0.0,2.0,57,0.00,,,-99.99,,2013-01-22 02:22:00,
2013-01-21 19:32:00,24.0,11.0,-100.00,SW,230,2.0,3.0,58,0.00,,,-99.99,,2013-01-22 02:32:00,
2013-01-21 19:43:00,23.0,11.0,-100.00,NNW,340,0.0,3.0,58,0.00,,,-99.99,,2013-01-22 02:43:00,
2013-01-21 19:53:00,24.0,12.0,-100.00,WSW,245,0.0,3.0,59,0.00,,,-99.99,,2013-01-22 02:53:00,
2013-01-21 20:02:00,23.0,11.0,-100.00,WNW,285,1.0,2.0,58,0.00,,,-99.99,,2013-01-22 03:02:00,
2013-01-21 20:12:00,26.0,11.0,-100.00,NNW,330,0.0,2.0,55,0.00,,,-99.99,,2013-01-22 03:12:00,
2013-01-21 20:22:00,27.0,11.0,-100.00,West,270,2.0,3.0,51,0.00,,,-99.99,,2013-01-22 03:22:00,
2013-01-21 20:32:00,27.0,11.0,-100.00,WNW,300,2.0,4.0,50,0.00,,,-99.99,,2013-01-22 03:32:00,
2013-01-21 20:42:00,27.0,10.0,-100.00,NNE,30,0.0,4.0,48,0.00,,,-99.99,,2013-01-22 03:42:00,
2013-01-21 20:53:00,28.0,10.0,-100.00,NW,325,0.0,4.0,47,0.00,,,-99.99,,2013-01-22 03:53:00,
2013-01-21 21:02:00,27.0,10.0,-100.00,SW,230,1.0,3.0,47,0.00,,,-99.99,,2013-01-22 04:02:00,
2013-01-21 21:12:00,27.0,9.0,-100.00,North,0,1.0,2.0,47,0.00,,,-99.99,,2013-01-22 04:12:00,
2013-01-21 21:22:00,26.0,9.0,-100.00,WNW,290,2.0,3.0,46,0.00,,,-99.99,,2013-01-22 04:22:00,
2013-01-21 21:32:00,26.0,8.0,-100.00,WNW,290,0.0,3.0,46,0.00,,,-99.99,,2013-01-22 04:32:00,
2013-01-21 21:42:00,26.0,8.0,-100.00,NW,325,1.0,2.0,45,0.00,,,-99.99,,2013-01-22 04:42:00,
2013-01-21 21:52:00,24.0,7.0,-100.00,NNW,330,0.0,2.0,47,0.00,,,-99.99,,2013-01-22 04:52:00,
2013-01-21 22:04:00,24.0,7.0,-100.00,SW,235,1.0,2.0,48,0.00,,,-99.99,,2013-01-22 05:04:00,
2013-01-21 22:12:00,25.0,7.0,-100.00,North,350,1.0,3.0,46,0.00,,,-99.99,,2013-01-22 05:12:00,
2013-01-21 22:22:00,24.0,7.0,-100.00,NE,40,1.0,4.0,46,0.00,,,-99.99,,2013-01-22 05:22:00,
2013-01-21 22:42:00,24.0,6.0,-100.00,WSW,245,1.0,2.0,46,0.00,,,-99.99,,2013-01-22 05:42:00,
2013-01-21 22:53:00,24.0,6.0,-100.00,West,270,1.0,3.0,46,0.00,,,-99.99,,2013-01-22 05:53:00,
2013-01-21 23:02:00,24.0,6.0,-100.00,West,275,1.0,3.0,44,0.00,,,-99.99,,2013-01-22 06:02:00,
2013-01-21 23:12:00,24.0,6.0,-100.00,WNW,290,1.0,2.0,45,0.00,,,-99.99,,2013-01-22 06:12:00,
2013-01-21 23:22:00,24.0,6.0,-100.00,NNE,20,1.0,3.0,44,0.00,,,-99.99,,2013-01-22 06:22:00,
2013-01-21 23:32:00,25.0,6.0,-100.00,North,0,2.0,4.0,43,0.00,,,-99.99,,2013-01-22 06:32:00,
2013-01-21 23:42:00,26.0,5.0,-100.00,North,10,4.0,6.0,41,0.00,,,-99.99,,2013-01-22 06:42:00,
2013-01-21 23:53:00,27.0,5.0,-100.00,North,0,4.0,6.0,38,0.00,,,-99.99,,2013-01-22 06:53:00,